www.pogodaiklimat.ru
ПОГОДА в Славонски-Броде

Архив погоды в Славонски-Броде (Хорватия)

Время
(UTC), дата
16 15.07
17 15.07
18 15.07
19 15.07
20 15.07
21 15.07
00 16.07
03 16.07
04 16.07
05 16.07
06 16.07
07 16.07
08 16.07
09 16.07
10 16.07
11 16.07
12 16.07
13 16.07
14 16.07
15 16.07
16 16.07
17 16.07
18 16.07
19 16.07
20 16.07
21 16.07
00 17.07
03 17.07
04 17.07
05 17.07
06 17.07
07 17.07
08 17.07
09 17.07
10 17.07
11 17.07
12 17.07
13 17.07
14 17.07
15 17.07
16 17.07
17 17.07
18 17.07
19 17.07
20 17.07
21 17.07
00 18.07
03 18.07
04 18.07
05 18.07
06 18.07
07 18.07
08 18.07
09 18.07
10 18.07
11 18.07
12 18.07
13 18.07
14 18.07
15 18.07
16 18.07
17 18.07
18 18.07
19 18.07
20 18.07
21 18.07
00 19.07
03 19.07
04 19.07
05 19.07
06 19.07
07 19.07
08 19.07
09 19.07
10 19.07
11 19.07
12 19.07
13 19.07
14 19.07
15 19.07
16 19.07
17 19.07
18 19.07
19 19.07
20 19.07
21 19.07
00 20.07
03 20.07
04 20.07
05 20.07
06 20.07
07 20.07
08 20.07
09 20.07
10 20.07
11 20.07
12 20.07
13 20.07
14 20.07
15 20.07
16 20.07
17 20.07
18 20.07
19 20.07
20 20.07
21 20.07
00 21.07
03 21.07
04 21.07
05 21.07
06 21.07
07 21.07
08 21.07
09 21.07
10 21.07
11 21.07
12 21.07
13 21.07
14 21.07
15 21.07
16 21.07
17 21.07
18 21.07
19 21.07
20 21.07
21 21.07
00 22.07
03 22.07
04 22.07
05 22.07
06 22.07
07 22.07
08 22.07
09 22.07
10 22.07
11 22.07
12 22.07
13 22.07
14 22.07
15 22.07
16 22.07
17 22.07
Ветер
(напр.,м/с)
Видим. Явления Облачность Т
(С)
Тd
(С)
f
(%)
Тe
(С)
Тes
(С)
Комфортность P
(гПа)
Po
(гПа)
Тmin
(С)
Tmax
(С)
R
(мм)
R24
(мм)
S
(см)
З 2 н/о н/о +34.6 +20.6 44 +41 +41 очень душно 1010.7 1000.8
З 2 н/о н/о +33.0 +21.6 51 +41 +41 очень душно 1010.9 1000.9
З 2 30 км 1/1 1000 м
[Cu med, cong]
+31.4 +21.6 56 +40 +40 очень душно 1010.3 1000.4 +35.5
З 1 30 км 3/0
[Cs]
+29.0 +21.8 65 +37 +37 очень душно 1010.6 1000.6
ЮЗ 1 10 км 5/0
[Ci fib]
+27.4 +21.7 71 +35 +35 очень душно 1010.8 1000.7
штиль 0 10 км 4/0
[Ci fib]
+26.8 +22.7 78 +35 +35 очень душно 1010.8 1000.7
штиль 0 10 км 3/0
[Ac trans]
+24.9 +21.1 79 +31 +31 очень душно 1010.5 1000.3
штиль 0 20 км 1/0
[Ac trans]
+22.4 +20.6 90 +29 +29 очень душно 1010.1 999.9
З 1 30 км 1/0
[Ac trans]
+22.4 +20.6 90 +29 +29 очень душно 1010.4 1000.2
ЮЗ 1 30 км ясно +23.4 +21.6 90 +32 +34 очень душно 1010.5 1000.3
З 1 10 км ясно +25.7 +22.1 81 +33 +39 очень душно 1010.7 1000.6 +22.2
З 1 10 км ясно +28.8 +22.0 67 +37 +47 очень душно 1010.8 1000.8
ЮЗ 3 10 км ясно +30.2 +21.3 59 +38 +48 очень душно 1010.7 1000.7
ЮЗ 2 10 км ясно +32.0 +22.2 56 +41 +57 очень душно 1010.5 1000.6
З 3 10 км 1/1 1000 м
[Cu hum]
+33.3 +22.0 52 +42 +56 очень душно 1010.2 1000.3
ЮЗ 2 10 км 1/1 1000 м
[Cu hum]
+34.6 +22.0 48 +43 +60 очень душно 1010.0 1000.2
ЮЗ 3 10 км 1/1 1000 м
[Cu hum]
+34.8 +22.2 48 +44 +56 очень душно 1009.7 999.9
З 2 10 км 1/1 1000 м
[Cu hum]
+35.7 +22.0 45 +44 +57 опасность перегрева 1009.3 999.5
З 3 10 км 1/1 1000 м
[Cu med, cong]
+36.1 +21.5 43 +44 +52 опасность перегрева 1009.3 999.5
ЮЗ 3 10 км 1/1 1000 м
[Cu med, cong]
+35.6 +22.7 47 +45 +50 опасность перегрева 1009.3 999.5
ЮЗ 3 н/о н/о +34.8 +22.9 50 +45 +45 очень душно 1009.5 999.6
СЗ 1 н/о н/о +33.7 +22.2 51 +43 +43 очень душно 1009.8 999.9
З 1 10 км 3/1 1000 м
[Sc Ci fib]
+32.0 +23.2 60 +43 +43 очень душно 1009.4 999.5 +36.2
З 2 10 км ясно +29.8 +23.3 68 +40 +40 очень душно 1010.0 1000.0
З 2 10 км ясно +27.6 +23.1 77 +37 +37 очень душно 1010.5 1000.4
ЮЗ 1 10 км 1/0
[Ac trans]
+26.7 +22.9 80 +36 +36 очень душно 1010.8 1000.7
З 1 10 км ясно +24.8 +22.2 85 +32 +32 очень душно 1011.3 1001.1
З 1 10 км ясно +23.3 +20.8 86 +31 +31 очень душно 1012.1 1001.9
ЮЗ 1 10 км ясно +23.1 +20.7 86 +30 +31 очень душно 1012.6 1002.4
З 1 10 км ясно +24.2 +21.9 87 +31 +33 очень душно 1012.8 1002.6
З 2 30 км ясно +27.0 +22.5 76 +35 +40 очень душно 1013.5 1003.4 +23.0
З 2 30 км ясно +28.8 +22.9 70 +38 +47 очень душно 1013.7 1003.7
ЮЗ 3 30 км ясно +30.4 +21.7 60 +39 +49 очень душно 1013.8 1003.8
З 3 30 км 4/0
[Ac trans]
+32.2 +21.0 52 +40 +50 очень душно 1013.7 1003.8
З 2 30 км 3/0
[Ac trans]
+33.2 +21.4 50 +41 +56 очень душно 1013.9 1004.0
С 3 30 км 8/6 1000 м
[Cu Sc Ac trans]
+34.5 +19.8 42 +40 +45 очень душно 1013.9 1004.0
СВ 2 30 км 8/5 1000 м
[Cu Sc Ac trans]
+34.7 +19.4 41 +40 +46 очень душно 1013.4 1003.5
С 3 30 км 6/4 1000 м
[Cu Sc Ac trans]
+35.2 +19.5 40 +41 +46 опасность перегрева 1013.3 1003.4
С 3 30 км 8/5 1000 м
[Cu Sc Ac trans]
+35.0 +19.2 40 +40 +43 очень душно 1013.1 1003.2
С 3 30 км 8/4 1000 м
[Cu Sc Ac As]
+34.4 +19.5 42 +40 +42 очень душно 1013.1 1003.2
СВ 2 н/о н/о +34.1 +19.1 41 +39 +39 очень душно 1013.9 1003.9
СЗ 2 н/о н/о +33.2 +20.1 46 +39 +39 очень душно 1013.8 1003.8
ЮЗ 3 30 км {гроза} 8/8 1000 м
[Cu Sc]
+27.4 +21.1 69 +35 +35 очень душно 1013.4 1003.3 +35.5 0.1
СЗ 1 30 км 8/3 1000 м
[Sc Ac As]
+26.0 +21.4 76 +33 +33 очень душно 1014.1 1003.9
ЮЗ 1 10 км 8/0
[Ac As]
+24.8 +21.0 79 +31 +31 очень душно 1015.2 1005.0
З 1 10 км 5/3 1000 м
[Sc Ac As]
+24.1 +21.6 86 +31 +31 очень душно 1015.6 1005.4
З 1 10 км 3/0
[Ac trans]
+22.8 +21.2 91 +30 +30 очень душно 1016.0 1005.7
СЗ 1 10 км 5/3 1000 м
[Sc Ac trans]
+22.0 +20.1 89 +28 +28 душно 1017.3 1007.0
З 1 10 км 8/8 1000 м
[Cu Sc]
+21.6 +20.1 91 +27 +27 душно 1017.6 1007.3
З 1 30 км 8/8 1000 м
[Cu Sc]
+22.0 +20.2 90 +28 +28 душно 1018.3 1008.0
З 1 30 км 3/1 1000 м
[Sc diur, vesp Ac cast]
+23.5 +20.1 81 +29 +33 душно 1018.3 1008.0 +21.2 0.1
З 2 30 км 1/0
[Ac trans]
+25.8 +19.6 69 +31 +39 очень душно 1018.4 1008.2
ЮЗ 3 30 км ясно +27.0 +19.2 62 +32 +42 очень душно 1018.4 1008.2
ЮЗ 3 30 км 1/0
[Ci sp]
+28.0 +18.7 57 +33 +46 очень душно 1018.0 1007.9
ЮЗ 2 30 км 3/0
[Ci sp]
+29.4 +19.5 55 +35 +52 опасность солнечного удара 1017.9 1007.8
З 3 30 км 3/1 1000 м
[Cu hum Ci sp]
+30.8 +19.9 52 +37 +50 очень душно 1017.6 1007.6
З 2 30 км 4/1 1000 м
[Cu hum Ci sp]
+31.6 +20.1 51 +38 +52 опасность солнечного удара 1017.0 1007.0 0.1
З 3 30 км 3/1 1000 м
[Cu hum Ci sp]
+32.8 +20.4 48 +39 +50 очень душно 1016.5 1006.5
СЗ 1 30 км 3/1 1000 м
[Cu hum Ci sp]
+33.2 +18.3 41 +38 +48 очень душно 1016.0 1006.0
С 2 30 км 1/0
[Ci sp]
+33.2 +18.0 41 +38 +44 очень душно 1015.6 1005.7
С 3 н/о н/о +33.0 +18.8 43 +38 +38 очень душно 1016.4 1006.4
С 1 н/о н/о +32.4 +19.4 46 +38 +38 очень душно 1016.8 1006.7
С 2 30 км 6/3 1500 м
[Sc Cs]
+31.8 +20.4 51 +39 +39 очень душно 1015.9 1005.9 +33.7
ЮЗ 1 20 км 9/8 1000 м
[Cu Sc As trans]
+28.1 +23.2 75 +38 +38 очень душно 1016.2 1006.1
З 1 10 км 8/1 1000 м
[Sc diur, vesp Ac As]
+27.0 +22.5 76 +35 +35 очень душно 1016.1 1006.0
З 1 10 км 6/0
[Ci sp]
+25.6 +22.2 82 +33 +33 очень душно 1016.2 1006.0
В 2 10 км 8/8 1500 м
[Sc]
+27.8 +19.8 62 +34 +34 очень душно 1016.2 1006.1
СВ 1 20 км 1/1 1500 м
[Sc]
+26.2 +19.5 67 +32 +32 очень душно 1016.1 1005.9
СВ 1 30 км 1/1 1500 м
[Sc]
+26.2 +19.0 65 +31 +32 очень душно 1016.3 1006.1
В 1 30 км 3/0
[Ci sp]
+26.6 +19.3 64 +32 +34 очень душно 1016.6 1006.4
В 2 20 км 5/1 1000 м
[Sc Ac As Ci sp]
+27.6 +19.4 61 +33 +36 очень душно 1016.5 1006.4 +25.0
В 2 20 км 8/3 1000 м
[Sc Ac As]
+28.3 +19.4 59 +34 +37 очень душно 1016.7 1006.6
В 3 20 км 8/6 1000 м
[Sc Ac trans]
+29.2 +19.5 56 +35 +38 очень душно 1016.7 1006.6
В 3 20 км 1/1 1000 м
[Sc Ac trans]
+30.7 +19.2 50 +36 +48 очень душно 1016.2 1006.2
В 3 20 км 1/1 1500 м
[Cu hum]
+32.2 +16.7 39 +35 +49 очень душно 1016.0 1006.0
В 4 20 км 1/1 1500 м
[Cu hum]
+33.0 +16.4 37 +36 +47 очень душно 1015.6 1005.6
В 4 20 км ясно +33.7 +16.2 35 +36 +48 очень душно 1014.5 1004.6
В 3 20 км 1/1 1500 м
[Cu hum]
+34.1 +16.4 35 +37 +48 очень душно 1014.1 1004.2
В 4 20 км ясно +34.7 +15.2 31 +36 +43 душно 1013.2 1003.3
В 3 20 км 1/1 1500 м
[Cu hum]
+34.7 +15.4 32 +37 +42 очень душно 1012.3 1002.4
В 3 н/о н/о +34.1 +16.1 34 +37 +37 очень душно 1012.7 1002.7
В 3 н/о н/о +33.6 +16.1 35 +36 +36 очень душно 1012.3 1002.3
В 1 20 км 3/1 1000 м
[Cu med, cong Ac trans]
+33.0 +16.6 38 +36 +36 очень душно 1011.5 1001.6 +35.0
СВ 2 10 км 8/5 1000 м
[Sc Ac trans]
+31.5 +17.1 42 +35 +35 очень душно 1011.6 1001.6
СВ 1 10 км 8/6 1000 м
[Sc Ac trans]
+30.6 +17.0 44 +34 +34 очень душно 1011.6 1001.6
В 2 10 км зарница 8/5 1000 м
[Sc Ac trans]
+30.1 +16.8 45 +34 +34 очень душно 1011.7 1001.7
Ю 2 10 км в посл. час дождь 10/10 600 м
[St]
+24.4 +20.2 77 +30 +30 очень душно 1011.6 1001.4 0.6
В 2 10 км 10/10 600 м
[St]
+24.6 +19.0 71 +30 +30 очень душно 1009.8 999.6
СЗ 4 10 км 10/10 600 м
[St]
+23.5 +18.2 72 +28 +28 душно 1010.6 1000.4
В 2 10 км гроза, ливневой дождь 10/10 600 м
[Cb cap]
+24.4 +17.4 65 +28 +28 душно 1010.6 1000.4
С 4 2000 м гроза, ливневой дождь 10/10 600 м
[Cb cap]
+21.0 +19.2 89 +26 +26 душно 1011.1 1000.8 +20.8 15 14.8
СВ 1 10 км слаб. дождь {гроза} 10/8 300 м
[Frnb As op]
+21.0 +19.2 89 +27 +27 душно 1011.2 1000.9
СВ 4 30 км в посл. час дождь {гроза} 9/9 600 м
[St]
+21.8 +19.4 86 +27 +28 душно 1011.4 1001.1
СВ 3 30 км 9/9 1000 м
[Cu Sc]
+23.4 +18.3 73 +29 +31 душно 1010.7 1000.5
В 2 30 км 9/9 1000 м
[Cu Sc]
+24.6 +18.0 67 +29 +31 душно 1010.7 1000.5
С 2 30 км 9/9 1000 м
[Cu Sc]
+24.4 +17.8 67 +29 +30 душно 1010.7 1000.5
С 1 30 км {гроза} 9/9 1000 м
[Cu Sc]
+26.2 +18.5 63 +31 +33 очень душно 1010.4 1000.3 2 16.3
ЮЗ 2 30 км 9/9 1000 м
[Cu Sc]
+25.5 +18.5 65 +30 +32 душно 1010.9 1000.7
В 2 5000 м гроза, ливневой дождь 10/10 600 м
[Cb cap]
+23.2 +20.7 86 +31 +31 очень душно 1009.5 999.3
ЮВ 1 10 км в посл. час гроза 10/10 600 м
[St]
+23.0 +20.8 87 +30 +30 очень душно 1008.6 998.4
В 2 н/о н/о +23.0 +19.6 81 +30 +30 очень душно 1010.1 999.8
СВ 2 н/о н/о +23.3 +18.6 75 +29 +29 душно 1010.2 999.9
З 1 30 км {гроза} 8/6 1000 м
[Cu Sc Ac trans]
+23.2 +19.8 81 +30 +30 очень душно 1009.3 999.1 +26.6 5
штиль 0 10 км 8/8 1000 м
[Cu Sc]
+22.0 +20.2 90 +28 +28 душно 1009.4 999.2
СВ 2 10 км 9/9 1000 м
[Sc]
+22.0 +19.8 87 +28 +28 душно 1009.3 999.1
Ю 1 10 км 8/8 1000 м
[Sc]
+21.8 +19.2 85 +27 +27 душно 1009.3 999.0
З 1 н/о н/о +20.6 +18.1 86 +26 +26 душно 1010.2 999.8
ЮЗ 1 10 км 10/10 600 м
[St]
+19.6 +18.2 92 +23 +23 комфорт 1009.0 998.7
штиль 0 10 км 9/9 600 м
[St]
+19.6 +18.4 93 +22 +22 комфорт 1009.1 998.8
ЮЗ 1 10 км 8/8 1000 м
[Sc]
+20.2 +19.0 93 +25 +25 комфорт 1009.4 999.1
ЮЗ 1 20 км {дождь} 9/9 1000 м
[Sc]
+21.6 +19.5 88 +27 +27 душно 1009.7 999.4 +19.1 0.2 5.5
З 2 20 км 8/6 1000 м
[Cu Sc Ac und]
+23.5 +20.1 81 +29 +31 душно 1009.6 999.4
ЮЗ 2 30 км 8/6 600 м
[Cu Sc Ac trans]
+24.5 +18.9 71 +29 +33 душно 1009.7 999.5
ЮЗ 2 30 км 8/6 600 м
[Cu Sc Ac trans]
+25.2 +19.5 71 +31 +35 очень душно 1010.0 999.9
З 2 30 км 9/8 1000 м
[Cu Sc Ac trans]
+25.8 +19.0 66 +31 +33 очень душно 1010.0 999.9
З 3 30 км 9/9 1000 м
[Cu Sc]
+25.8 +19.2 67 +31 +33 очень душно 1009.7 999.6
З 2 30 км 6/4 1000 м
[Cu Sc Ac As]
+27.6 +18.3 57 +32 +40 очень душно 1009.7 999.6 4.0
З 3 30 км 6/5 1000 м
[Cb calv Ac cuf]
+28.3 +18.1 54 +33 +38 очень душно 1009.2 999.2
З 3 30 км 5/4 1000 м
[Cu med, cong Ac cuf]
+28.9 +19.1 55 +34 +39 очень душно 1009.0 999.0
З 3 30 км 5/5 1000 м
[Cu med, cong]
+29.4 +19.2 54 +35 +38 очень душно 1008.7 998.7
З 2 н/о н/о +29.4 +18.6 52 +34 +34 очень душно 1009.0 998.9
З 1 н/о н/о +28.4 +18.3 54 +33 +33 очень душно 1008.9 998.8
ЮЗ 1 30 км 1/1 1500 м
[Cu hum]
+27.6 +18.5 58 +33 +33 очень душно 1008.6 998.5 +29.8
штиль 0 30 км 1/0
[Ci fib]
+25.8 +19.3 67 +31 +31 очень душно 1008.7 998.6
СЗ 1 10 км ясно +23.9 +20.1 79 +29 +29 душно 1009.2 999.0
З 1 10 км ясно +21.4 +19.3 88 +26 +26 душно 1009.7 999.4
С 1 10 км ясно +20.0 +18.6 92 +24 +24 комфорт 1010.4 1000.1
ЮЗ 1 4000 м дымка 3/0
[Ci fib]
+18.6 +17.6 94 +21 +21 комфорт 1010.3 999.9
штиль 0 400 м туман, небо видно 3/0
[Ci fib]
+17.5 +16.7 95 +17 +18 1010.3 999.9
штиль 0 800 м туман, небо видно 4/0
[Ci]
+19.2 +18.6 96 +21 +23 комфорт 1010.5 1000.1
З 1 10 км в посл. час туман 3/0
[Ci fib]
+21.6 +20.4 93 +27 +32 душно 1010.9 1000.6 +17.4
ЮЗ 1 10 км 4/1 1000 м
[Cu med, cong Ac trans Ci fib]
+23.9 +19.6 77 +29 +36 душно 1011.2 1001.0
ЮЗ 1 10 км 6/1 1000 м
[Cu med, cong Ac cast Ci fib]
+25.9 +19.4 67 +31 +40 очень душно 1011.3 1001.2
ЮЗ 2 10 км 6/3 1000 м
[Cu med, cong Ac cast Ci sp]
+28.2 +19.8 60 +34 +43 очень душно 1011.3 1001.2
ЮЗ 2 10 км 6/3 1000 м
[Cu med, cong Ac cast Ci fib]
+29.5 +19.8 56 +36 +45 очень душно 1011.2 1001.2
Ю 1 10 км 6/4 1000 м
[Cu Sc Ac trans]
+30.3 +18.4 49 +35 +45 очень душно 1011.1 1001.1
СВ 1 10 км 8/6 1000 м
[Cu Sc Ac trans Ci fib]
+31.7 +19.3 48 +37 +43 очень душно 1010.9 1001.0
Ю 3 10 км 8/6 1000 м
[Cu Sc Ac trans Ci fib]
+31.0 +19.4 50 +37 +40 очень душно 1010.9 1000.9
З 2 20 км 8/5 1000 м
[Cu Sc Ac As Ci fib]
+31.4 +19.6 50 +37 +41 очень душно 1010.9 1000.9
З 3 20 км 8/3 1000 м
[Cu Sc Ac As]
+32.0 +19.0 46 +37 +39 очень душно 1010.7 1000.8
З 4 н/о н/о +27.4 +19.5 62 +33 +33 очень душно 1012.0 1001.8
З 2 н/о н/о +25.8 +18.8 65 +31 +31 очень душно 1012.0 1001.8
Местоположение метеостанции Славонски-Брод (Хорватия): широта 45.17 долгота 18.00 высота над уровнем моря 89 м.
В архиве по умолчанию представлена погода в Славонски-Броде за последнюю неделю. Архивные данные за месяц целиком и за предыдущие месяцы, начиная с января 2011 года, Вы можете получить, выбрав интересующий диапазон дат из раскрывающегося списка и нажав кнопку "Найти!".
*Определитесь, кто Вы:
Внимание! Время в таблицах - всемирное. Для получения местного времени необходимо прибавить поправку, которая равна 1 ч.
Некоторые строки с данными для отдельных станций могут быть выделены курсивом. Это означает, что фактические данные отсутствуют по различным причинам, а приведенные значения являются расчетными модельными данными для данного пункта наблюдений.
Смотрите также архив погоды в соседних городах и на ближайших метеорологических станциях:
Партнеры нашего сайта:      
Пояснения к столбцам:
  • Ветер - указаны скорость ветра в м/с - средняя за 10 мин, порывы в срок и между сроками (в фигурных скобках) и направление, откуда дует ветер: С - северный,
  • СВ - северо-восточный, В - восточный, ЮВ - юго-восточный, Ю - южный, ЮЗ - юго-западный, З - западный, СЗ - северо-западный.
  • Видимость - горизонтальная дальность видимости в метрах или километрах. При видимости от 1 до 10 км при отсутствии осадков обычно наблюдается дымка, при ухудшении видимости до 1 км и менее - туман. В сухую погоду видимость может ухудшаться дымом, пылью или мглою.
  • Явления - указаны атмосферные явления, наблюдавшиеся в срок или в последний час перед сроком; фигурными скобками обозначены явления, наблюдавшиеся между сроками (за 1-3 часа до срока); квадратными скобками обозначены град или гололедные отложения с указанием их диаметра в мм.
  • Облачность - указаны через наклонную черту общая и нижняя облачность в баллах и высота нижней границы облаков в метрах; квадратными скобками обозначены формы облаков: Ci - перистые, Cs - перисто-слоистые, Cc - перисто-кучевые, Ac - высококучевые, As - высокослоистые, Sc - слоисто-кучевые, Ns - слоисто-дождевые, Cu - кучевые, Cb - кучево-дождевые. Подробнее классификацию облаков см. в Атласе облаков (PDF).
  • T - Температура воздуха - температура, измеренная на высоте 2 м над землей.
  • Td - Температура точки росы - температура, при понижении до которой содержащийся в воздухе водяной пар достигнет насыщения.
  • f - Относительная влажность воздуха - влажноcть воздуха, измеренная на высоте 2 м над землей.
  • Te - Эффективная температура - температура, которую ощущает одетый по сезону человек в тени. Характеристика душности погоды. При расчете учитывается влияние влажности воздуха и скорости ветра на теплоощущения человека.
  • Tes - Эффективная температура на солнце - температура, которую ощущает человек, с поправкой на солнечный нагрев. Характеристика знойности погоды. Зависит от высоты солнца над горизонтом, облачности и скорости ветра. Ночью, в пасмурную погоду, а также при ветре 12 м/с и более поправка равна нулю.
  • P - Атмосферное давление - приведенное к уровню моря атмосферное давление.
  • Po - Атмосферное давление - измеренное на уровне метеостанции атмосферное давление.
  • Tmin - Минимальная температура - минимум температуры воздуха на высоте 2 м над землей.
  • Tmax - Максимальная температура - максимум температуры воздуха на высоте 2 м над землей.
  • R - Количество осадков - Количество выпавших осадков за период времени, мм. При наведении курсора мыши на число - период времени, за который выпало указанное количество осадков.
  • R24 - Количество осадков - Количество выпавших осадков за 24 часа, мм.
  • S - Снежный покров - Высота снежного покрова, см. При наведении курсора мыши на число - состояние снежного покрова и степень покрытия местности в баллах.